SCP
1 1 1 1 1 1 1 0 0 0 0 0 0 0 0 0 0 0 0 0 0 0 0 0 0 0 0 0 0 0 0 0 0 0 0 0 0 0 0 0 0 0 0
1 1 1 1 1 1 1 1 0 0 0 0 0 0 0 0 0 0 0 0 0 0 0 0 0 0 0 0 0 0 0 0 0 0 0 0 0 0 0 0 0 0 0
1 1 1 1 1 1 1 1 1 1 0 0 0 0 0 0 0 0 0 0 0 0 0 0 0 0 0 0 0 0 0 0 0 0 0 0 0 0 0 0 0 0 0
1 1 1 1 1 1 1 1 1 1 1 1 0 0 0 0 0 0 0 0 0 0 0 0 0 0 0 0 0 0 0 0 0 0 0 0 0 0 0 0 0 0 0
1 1 1 1 1 1 1 1 1 1 1 1 1 1 0 0 0 0 0 0 0 0 0 0 0 0 0 0 0 0 0 0 0 0 0 0 0 0 0 0 0 0 0
1 1 1 1 1 1 1 1 1 1 1 1 1 1 1 1 1 1 0 0 0 0 1 1 1 1 1 0 0 0 0 0 0 0 0 0 0 0 0 0 0 0 0
1 1 1 1 1 1 1 1 0 0 0 0 0 1 1 1 1 1 1 1 1 1 1 1 1 1 1 1 1 0 0 0 0 0 0 0 0 0 0 0 0 0 0
1 1 1 1 1 1 1 1 0 0 0 0 0 0 0 0 0 0 0 0 1 1 1 0 0 1 1 1 1 1 0 0 0 0 0 0 0 0 0 0 0 0 0
1 1 1 1 1 1 1 0 0 0 0 0 0 0 0 0 0 0 0 0 0 0 0 0 0 0 1 1 1 1 0 0 0 0 0 0 0 0 0 0 0 0 0
1 1 1 1 1 1 1 0 0 0 0 0 0 0 0 0 0 0 0 0 0 0 0 0 0 0 0 1 1 1 0 0 0 0 0 0 1 1 1 1 1 1 0
1 1 1 1 1 1 1 0 0 0 0 0 0 0 0 0 0 0 0 0 0 0 0 0 0 0 0 0 0 0 0 0 0 0 0 0 1 1 1 1 1 1 1
1 1 1 1 1 1 1 1 0 0 0 0 0 0 0 0 0 0 0 0 0 0 0 0 0 0 0 0 0 0 0 0 0 0 0 0 1 1 1 1 1 1 1
1 1 1 1 1 1 1 1 1 0 0 0 0 0 0 0 0 0 0 0 0 0 0 0 0 0 0 0 0 0 0 0 0 1 0 0 1 1 1 1 1 1 1
1 1 1 1 1 1 1 1 1 1 1 0 0 0 0 0 0 0 0 0 0 0 0 0 0 0 0 0 0 0 0 0 0 0 0 0 1 1 1 1 1 1 1
1 1 1 1 1 1 1 1 1 1 1 0 0 0 0 0 0 0 0 0 0 0 0 0 0 0 0 0 0 0 0 0 0 0 0 0 1 1 1 1 1 1 1
1 1 1 1 1 1 1 1 1 1 1 0 0 0 0 0 0 0 0 0 0 0 0 0 0 0 0 0 0 0 0 0 0 0 0 0 0 1 1 1 1 1 1
1 1 1 1 1 1 1 1 1 1 0 0 0 0 0 0 0 0 0 0 0 0 0 0 0 0 0 0 0 0 0 0 0 0 0 0 0 0 1 1 1 1 2
2 1 1 1 1 1 1 1 1 1 1 0 0 0 0 0 0 0 0 0 0 0 0 0 0 0 0 0 0 0 0 0 0 0 0 0 0 0 0 0 1 1 1
2 1 1 1 1 1 1 0 1 1 1 1 0 0 0 0 0 0 0 0 0 0 0 0 0 0 0 0 0 0 0 0 0 0 0 0 0 0 0 0 0 1 1
2 1 1 1 1 1 0 0 0 0 1 1 0 0 0 0 0 0 0 0 0 0 0 0 0 0 0 0 0 0 0 0 0 0 0 0 0 0 0 0 0 0 0
2 1 1 1 1 1 0 0 0 0 0 0 0 0 0 0 0 0 0 0 0 0 0 0 0 0 0 0 0 0 0 0 0 0 0 0 0 0 0 0 0 0 0
2 1 1 1 1 1 0 0 0 0 0 0 0 0 0 0 0 0 0 0 0 0 0 0 0 0 0 0 0 0 0 0 0 0 0 0 0 0 0 0 0 0 1
2 2 1 1 1 1 1 0 0 0 0 0 0 0 0 0 0 0 0 0 0 0 0 0 0 0 0 0 0 0 0 0 0 0 0 0 0 0 0 0 0 0 0
2 2 1 1 1 1 1 0 0 0 0 0 0 0 0 0 0 0 0 0 0 0 0 0 0 0 0 0 0 0 0 0 0 0 0 0 0 0 0 0 0 0 0
3 2 1 1 1 1 0 0 0 0 0 0 0 0 0 0 0 0 0 0 0 0 0 0 0 0 0 0 0 0 0 0 0 0 0 0 0 0 0 0 0 0 0
3 2 1 1 1 1 0 0 0 0 0 0 0 0 0 0 0 0 0 0 0 0 0 0 0 0 0 0 0 0 0 0 0 0 0 0 0 0 0 0 0 0 0
Wind_Speed
5 7 7 7 8 9 9 9 9 9 9 10 10 10 10 11 11 11 11 11 11 11 12 12 12 12 12 12 12 12 11 11 11 10 11 11 11 11 11 10 10 8 12
7 8 7 7 8 8 9 8 8 8 9 9 9 10 10 10 10 10 10 10 10 10 11 11 12 12 11 11 11 10 9 9 8 7 7 7 9 10 11 11 10 7 11
8 9 7 7 8 8 8 8 8 8 8 8 9 9 9 9 9 10 9 9 9 10 10 10 10 10 10 10 9 8 7 6 5 4 3 3 6 10 10 10 10 10 10
8 8 7 7 8 8 8 8 8 7 7 7 8 8 8 8 9 9 9 8 9 9 9 9 9 9 9 8 8 7 5 4 4 4 2 3 4 9 9 9 9 9 8
7 8 8 8 8 8 8 8 8 7 7 7 7 7 7 8 8 8 8 8 8 9 9 8 8 8 8 7 6 6 5 5 5 4 2 4 4 7 8 7 7 7 7
7 8 8 8 8 8 8 8 7 7 7 7 7 7 7 8 8 7 8 7 7 8 8 8 8 7 7 6 6 5 5 6 5 2 3 4 4 6 6 6 5 5 5
7 8 8 8 8 8 7 8 7 7 6 6 7 7 7 7 7 7 7 7 7 7 7 7 6 6 6 5 5 5 6 7 3 2 3 3 4 5 5 4 4 4 5
7 7 7 8 8 7 7 7 7 7 6 6 7 7 6 6 7 6 7 7 7 6 6 6 5 5 5 4 4 4 5 7 5 3 2 3 4 4 3 3 3 3 3
7 6 5 5 6 7 7 7 6 6 6 6 6 6 6 6 6 6 5 5 5 5 5 4 4 4 3 3 3 4 5 6 4 2 2 2 3 2 2 2 2 3 3
6 5 4 3 3 4 4 6 6 6 6 6 5 5 5 5 5 4 4 4 4 4 4 3 3 2 2 2 2 3 5 5 3 2 1 1 2 2 2 2 2 3 3
5 4 4 3 3 2 3 4 4 5 5 5 4 4 3 2 2 2 3 4 3 3 3 2 1 1 1 1 3 4 4 2 2 1 1 1 1 1 2 2 3 3 3
4 4 3 3 3 2 2 3 2 2 3 2 2 2 1 1 2 3 3 3 2 2 1 0 1 2 2 2 3 3 2 3 2 0 0 0 1 3 4 4 4 4 4
3 4 4 3 3 3 2 2 1 2 2 2 3 2 1 2 2 2 1 1 1 1 0 1 1 2 2 1 1 2 2 2 1 0 0 1 2 4 5 5 5 5 5
3 3 3 4 3 3 2 2 2 2 2 2 2 2 2 1 1 1 1 0 0 0 1 1 1 2 2 2 2 2 2 2 1 1 1 2 3 5 6 6 6 6 6
2 2 2 3 3 2 2 2 2 2 2 2 2 2 3 2 1 1 1 1 1 1 1 1 1 2 2 2 3 3 3 3 3 2 1 3 3 5 7 7 7 7 6
2 2 2 2 2 2 2 2 2 2 2 2 2 3 3 2 2 1 1 1 1 1 1 1 1 2 2 2 3 3 3 3 3 3 2 2 4 4 6 7 7 7 7
2 2 2 3 3 2 2 2 2 2 2 2 2 2 2 2 2 2 1 1 1 1 1 1 2 2 2 2 3 3 3 3 3 4 3 2 2 4 5 7 8 8 8
2 2 2 3 3 3 2 2 1 1 2 2 1 1 2 3 2 2 2 2 2 2 1 1 1 2 2 2 3 3 3 3 4 4 3 2 2 2 3 6 7 8 8
2 2 2 2 2 2 1 1 1 2 2 1 1 1 2 2 2 2 1 2 2 2 2 2 2 2 2 3 3 3 3 3 3 3 3 3 3 2 2 4 6 6 8
2 3 2 2 2 1 1 1 1 2 1 1 1 1 2 2 2 2 1 2 2 2 2 2 2 2 2 2 4 4 4 4 3 3 3 3 3 3 3 3 3 4 7
3 3 2 2 2 2 1 1 1 1 1 1 1 2 2 2 2 1 2 2 2 1 2 2 2 3 3 2 2 4 4 4 2 2 2 2 2 2 2 3 3 3 3
2 2 2 1 1 1 1 0 0 0 0 0 1 2 2 2 2 2 2 1 1 1 2 2 2 2 2 2 1 3 3 3 2 3 2 2 2 2 2 3 3 3 3
2 2 1 1 1 1 1 1 1 1 1 1 1 1 2 2 2 2 2 2 2 1 1 2 2 2 2 2 1 1 2 3 4 3 3 2 2 2 3 3 4 4 4
2 2 2 1 1 1 0 0 1 1 0 1 1 1 2 2 2 2 2 2 2 2 2 2 2 2 2 2 2 2 2 2 3 4 3 2 3 3 4 4 3 3 4
2 2 2 2 2 1 1 1 1 1 0 0 1 1 2 2 2 2 2 2 2 1 2 2 2 2 2 2 2 2 3 3 3 4 5 4 3 3 3 3 3 2 3
3 2 2 2 2 2 2 1 1 1 0 1 1 1 1 1 2 2 2 2 2 2 2 2 2 2 2 3 3 2 2 3 3 3 5 6 5 3 3 3 2 2 2
Wind_Direction
105 116 121 115 108 106 105 102 100 100 96 93 88 84 82 82 81 80 79 80 80 79 78 77 75 71 71 71 70 69 67 66 66 68 70 69 69 65 62 57 58 63 64
112 119 114 110 107 104 102 101 98 97 97 94 89 86 86 85 83 82 81 79 81 80 80 77 76 72 69 68 67 68 67 63 60 61 70 72 73 68 64 58 60 64 63
107 116 112 103 103 102 102 101 100 98 98 96 92 89 88 86 85 83 80 78 80 82 80 77 76 73 71 68 66 65 64 56 39 28 46 82 81 73 68 63 61 62 58
110 120 115 100 99 101 103 103 101 98 96 98 98 92 88 86 85 84 80 77 79 79 78 77 75 73 70 68 65 62 55 36 7 1 29 63 71 75 68 64 60 57 54
103 109 107 99 97 99 102 100 98 99 97 94 95 93 89 87 83 85 80 79 81 80 77 75 74 72 68 65 62 54 36 5 348 338 42 63 69 73 67 60 57 54 46
101 105 106 96 95 95 96 96 96 96 96 94 92 93 91 89 85 86 85 83 83 81 78 76 73 69 67 62 54 40 15 354 335 352 51 61 71 72 66 57 54 48 41
98 104 112 95 90 89 94 94 91 90 92 93 92 93 93 90 86 85 86 85 85 83 79 76 72 66 61 57 46 28 3 344 334 24 53 58 72 74 64 53 45 43 36
92 101 111 93 91 86 83 86 86 84 86 90 90 87 90 89 85 82 85 83 81 81 79 75 73 64 56 52 38 12 352 340 343 16 59 63 68 67 56 43 37 29 23
78 90 104 110 105 92 85 79 78 80 81 84 84 82 80 83 81 77 83 82 83 81 79 72 68 59 48 38 17 352 336 329 325 334 38 62 63 49 26 14 9 5 358
70 74 84 99 108 116 109 91 83 80 80 81 85 85 85 87 86 83 87 83 84 80 78 75 66 56 33 4 338 324 314 315 302 330 24 63 69 24 357 347 340 335 335
62 59 66 65 74 94 113 110 100 92 85 82 84 93 101 104 109 103 83 86 85 82 82 77 66 47 342 284 275 283 296 285 296 339 34 66 73 328 322 315 317 319 321
67 49 49 56 56 62 92 111 115 111 104 83 75 85 73 62 73 80 92 94 97 106 112 126 260 273 266 251 254 258 266 273 280 272 65 91 263 280 289 295 302 303 303
73 47 31 40 56 47 51 78 77 79 82 75 67 52 38 51 66 74 87 99 135 169 211 234 265 273 271 279 272 255 268 280 286 283 207 233 262 277 283 288 293 296 295
75 57 34 31 46 51 48 64 73 72 62 61 58 44 45 52 49 50 56 39 29 335 320 315 290 294 295 294 290 287 290 289 282 254 214 233 259 272 283 285 286 290 293
90 72 49 39 35 42 54 63 74 75 68 61 50 35 41 45 39 44 43 30 17 4 330 318 309 302 300 298 295 296 288 284 282 270 242 237 254 271 281 283 283 284 288
94 84 56 60 46 43 56 55 72 81 70 66 55 33 32 35 27 27 37 29 3 348 329 308 311 310 298 296 294 292 285 281 274 271 251 245 250 264 276 283 281 281 282
97 94 76 66 53 39 53 51 53 77 83 73 61 42 35 33 27 24 28 11 344 338 343 334 325 323 319 313 301 293 286 280 276 272 266 250 242 254 266 278 281 281 281
90 89 78 70 64 42 34 40 46 57 78 75 66 46 32 31 26 26 25 1 345 349 347 335 323 314 309 309 304 297 293 286 279 274 272 265 253 251 258 265 274 278 281
85 83 77 82 82 67 45 36 46 45 54 61 66 57 33 28 21 23 14 349 348 353 352 347 339 325 311 311 302 292 288 278 270 273 274 271 263 252 248 260 262 271 278
85 74 64 59 60 70 68 42 47 49 43 40 44 43 41 26 17 13 11 354 352 355 348 346 328 319 309 310 306 299 284 273 266 263 266 270 268 267 269 273 262 266 273
89 82 71 65 49 41 47 63 69 39 38 27 21 26 34 28 18 10 357 342 348 344 331 334 334 320 315 322 316 307 291 269 257 274 278 280 287 285 285 284 278 270 273
110 102 94 80 59 39 21 3 84 81 100 89 18 9 13 29 21 4 351 336 330 322 334 336 340 326 307 339 325 317 315 311 313 294 291 287 296 313 304 294 288 285 280
114 122 114 105 76 46 33 56 63 53 34 28 13 4 3 8 14 5 355 347 336 335 326 320 325 319 300 301 321 306 310 294 312 281 272 274 296 302 297 292 284 284 283
104 96 97 93 83 66 54 111 109 84 27 345 344 359 3 8 11 1 356 346 344 342 332 318 315 297 294 298 297 279 274 287 300 305 299 300 310 298 292 300 303 299 288
112 93 79 71 63 45 43 51 89 87 71 4 10 4 1 2 9 5 351 346 339 334 327 319 316 310 293 286 292 293 285 287 272 280 291 303 304 290 296 299 302 308 312
115 106 99 80 61 50 56 48 73 86 78 33 4 353 349 345 350 355 342 345 338 329 317 311 311 312 310 301 295 292 291 284 287 278 283 295 294 292 300 301 301 317 333